Location: 81360 Arifat, France
(43.7204°N, 2.3408°E)
Time: 08:40:08
(UTC+01:00)

Courier 1B - Pass Details

Date: 08 December 2025
Orbit: 962 x 1208 km, 28.3° (Epoch: 18 January)

Event Time Altitude Azimuth Distance (km) Brightness Sun altitude
Exits shadow 04:21:45 13° 147° (SSE) 2,532 9.9 -40.6°
Drops below altitude 10° 04:22:43 10° 140° (SE) 2,757 10.1 -40.5°
Sets 04:26:12 0° 124° (SE) 3,746 11.1 -39.8°
